GFA183 OEJN-OBBI

Flight info

Callsign GFA183
Flight time N/A
Altitude 33000
Route EGREP2W EGREP B417 PATOR T532 DAW DCT TASBA J852 KAVUR DCT KINIB N687 MIBRA J749 KFA H732 LADNA LADNA1
Aircraft A21N/M-VGDW/C

Departure

Time 2026-04-28 23:07
Airport King Abdulaziz International Airport (OEJN)

Arrival

Time N/A
Airport Bahrain International Airport (OBBI)
Time Latitude Longitude Altitude Speed Heading
2026-04-28 22:13 21.67198 39.17064 26 ft 0 kts 139°
2026-04-28 22:51 21.67202 39.17061 52 ft 4 kts 139°
2026-04-28 22:51 21.67222 39.17042 49 ft 4 kts 140°
2026-04-28 22:51 21.67242 39.17024 52 ft 4 kts 143°
2026-04-28 22:51 21.67262 39.17011 50 ft 3 kts 160°
2026-04-28 22:52 21.67275 39.17009 50 ft 2 kts 191°
2026-04-28 22:52 21.67285 39.17013 52 ft 2 kts 216°
2026-04-28 22:52 21.67294 39.17021 52 ft 2 kts 224°
2026-04-28 22:52 21.67301 39.17029 52 ft 2 kts 227°
2026-04-28 22:53 21.67302 39.17030 52 ft 0 kts 227°
2026-04-28 22:56 21.67296 39.17023 52 ft 0 kts 227°
2026-04-28 22:56 21.67290 39.17016 51 ft 0 kts 227°
2026-04-28 22:56 21.67282 39.17007 51 ft 3 kts 227°
2026-04-28 22:56 21.67264 39.16983 51 ft 6 kts 232°
2026-04-28 22:57 21.67236 39.16941 50 ft 8 kts 235°
2026-04-28 22:57 21.67216 39.16875 47 ft 11 kts 256°
2026-04-28 22:57 21.67238 39.16798 47 ft 13 kts 327°
2026-04-28 22:57 21.67336 39.16765 46 ft 16 kts 345°
2026-04-28 22:58 21.67456 39.16730 45 ft 19 kts 344°
2026-04-28 22:58 21.67593 39.16681 46 ft 22 kts 340°
2026-04-28 22:58 21.67625 39.16533 44 ft 24 kts 250°
2026-04-28 22:58 21.67565 39.16357 41 ft 26 kts 250°
2026-04-28 22:59 21.67488 39.16173 39 ft 28 kts 213°
2026-04-28 22:59 21.67339 39.16203 40 ft 16 kts 158°
2026-04-28 22:59 21.67262 39.16236 40 ft 9 kts 159°
2026-04-28 22:59 21.67193 39.16265 41 ft 13 kts 159°
2026-04-28 23:00 21.67098 39.16304 41 ft 16 kts 159°
2026-04-28 23:00 21.66982 39.16351 41 ft 19 kts 160°
2026-04-28 23:00 21.66847 39.16404 42 ft 22 kts 160°
2026-04-28 23:00 21.66691 39.16463 42 ft 25 kts 160°
2026-04-28 23:01 21.66571 39.16511 42 ft 17 kts 160°
2026-04-28 23:01 21.66483 39.16545 42 ft 14 kts 160°
2026-04-28 23:01 21.66436 39.16564 42 ft 4 kts 159°
2026-04-28 23:01 21.66396 39.16581 40 ft 8 kts 159°
2026-04-28 23:02 21.66384 39.16585 42 ft 1 kts 159°
2026-04-28 23:02 21.66365 39.16593 42 ft 5 kts 159°
2026-04-28 23:02 21.66320 39.16610 42 ft 9 kts 171°
2026-04-28 23:02 21.66275 39.16568 41 ft 0 kts 250°
2026-04-28 23:03 21.66272 39.16559 41 ft 3 kts 250°
2026-04-28 23:03 21.66270 39.16554 41 ft 0 kts 250°
2026-04-28 23:03 21.66270 39.16552 41 ft 1 kts 250°
2026-04-28 23:04 21.66267 39.16545 41 ft 0 kts 250°
2026-04-28 23:04 21.66267 39.16544 41 ft 1 kts 250°
2026-04-28 23:05 21.66262 39.16529 41 ft 4 kts 250°
2026-04-28 23:05 21.66250 39.16492 38 ft 7 kts 253°
2026-04-28 23:05 21.66267 39.16434 40 ft 11 kts 322°
2026-04-28 23:05 21.66314 39.16410 41 ft 0 kts 339°
2026-04-28 23:06 21.66320 39.16408 41 ft 3 kts 339°
2026-04-28 23:07 21.66425 39.16366 42 ft 48 kts 339°
2026-04-28 23:07 21.67009 39.16139 41 ft 127 kts 339°
2026-04-28 23:07 21.68028 39.15736 178 ft 171 kts 340°
2026-04-28 23:07 21.69119 39.15276 1041 ft 167 kts 341°
2026-04-28 23:08 21.70254 39.14852 1812 ft 180 kts 341°
2026-04-28 23:08 21.71494 39.14370 2399 ft 208 kts 340°
2026-04-28 23:08 21.72953 39.13795 3060 ft 237 kts 339°
2026-04-28 23:08 21.74560 39.13153 3876 ft 253 kts 338°
2026-04-28 23:09 21.76247 39.12480 4857 ft 264 kts 337°
2026-04-28 23:09 21.77998 39.11782 5828 ft 272 kts 337°
2026-04-28 23:09 21.79804 39.11072 6791 ft 280 kts 337°
2026-04-28 23:09 21.81659 39.10344 7816 ft 285 kts 337°
2026-04-28 23:10 21.83618 39.09856 8755 ft 295 kts 355°
2026-04-28 23:10 21.85667 39.10246 9469 ft 305 kts 20°
2026-04-28 23:10 21.87404 39.11513 9815 ft 311 kts 44°
2026-04-28 23:10 21.88860 39.13289 9978 ft 329 kts 50°
2026-04-28 23:11 21.90391 39.15261 10407 ft 356 kts 49°
2026-04-28 23:11 21.92040 39.17328 11074 ft 370 kts 48°
2026-04-28 23:11 21.93755 39.19434 11978 ft 376 kts 48°
2026-04-28 23:11 21.95498 39.21562 12917 ft 382 kts 48°
2026-04-28 23:12 21.97273 39.23722 13798 ft 388 kts 47°
2026-04-28 23:12 21.99084 39.25903 14591 ft 394 kts 47°
2026-04-28 23:12 22.00931 39.28122 15379 ft 399 kts 47°
2026-04-28 23:12 22.02795 39.30366 16191 ft 405 kts 47°
2026-04-28 23:13 22.04682 39.32650 16986 ft 410 kts 47°
2026-04-28 23:13 22.06572 39.34934 17758 ft 416 kts 47°
2026-04-28 23:13 22.08509 39.37281 18472 ft 421 kts 47°
2026-04-28 23:13 22.10478 39.39663 19118 ft 427 kts 47°
2026-04-28 23:14 22.12471 39.42081 19670 ft 436 kts 47°
2026-04-28 23:14 22.14496 39.44558 20303 ft 441 kts 47°
2026-04-28 23:14 22.16534 39.47057 20977 ft 446 kts 47°
2026-04-28 23:14 22.18606 39.49588 21637 ft 452 kts 47°
2026-04-28 23:15 22.20706 39.52145 22256 ft 458 kts 47°
2026-04-28 23:15 22.22841 39.54735 22871 ft 464 kts 47°
2026-04-28 23:15 22.24997 39.57360 23458 ft 471 kts 47°
2026-04-28 23:15 22.27162 39.59997 23944 ft 476 kts 46°
2026-04-28 23:16 22.29365 39.62675 24456 ft 479 kts 46°
2026-04-28 23:16 22.31584 39.65374 24943 ft 483 kts 46°
2026-04-28 23:16 22.33824 39.68103 25416 ft 486 kts 46°
2026-04-28 23:16 22.36074 39.70848 25889 ft 490 kts 45°
2026-04-28 23:17 22.38339 39.73605 26377 ft 492 kts 45°
2026-04-28 23:17 22.40622 39.76382 26832 ft 496 kts 45°
2026-04-28 23:17 22.42916 39.79181 27241 ft 499 kts 45°
2026-04-28 23:17 22.44473 39.81080 27501 ft 501 kts 45°
2026-04-28 23:18 22.46808 39.83820 27899 ft 502 kts 40°
2026-04-28 23:18 22.49400 39.86349 28326 ft 503 kts 37°
2026-04-28 23:18 22.52039 39.88856 28754 ft 506 kts 36°
2026-04-28 23:18 22.54700 39.91380 29141 ft 510 kts 36°
2026-04-28 23:19 22.57363 39.93923 29588 ft 511 kts 36°
2026-04-28 23:19 22.60024 39.96472 30092 ft 509 kts 36°
2026-04-28 23:19 22.62682 39.99002 30531 ft 508 kts 36°
2026-04-28 23:19 22.65339 40.01541 30934 ft 509 kts 36°
2026-04-28 23:20 22.67989 40.04073 31338 ft 508 kts 36°
2026-04-28 23:20 22.70621 40.06572 31741 ft 509 kts 36°
2026-04-28 23:20 22.73271 40.09110 32171 ft 508 kts 37°
2026-04-28 23:20 22.75918 40.11653 32597 ft 508 kts 37°
2026-04-28 23:21 22.78571 40.14192 32958 ft 510 kts 37°
2026-04-28 23:21 22.81231 40.16743 33067 ft 510 kts 37°
2026-04-28 23:21 22.86558 40.21856 33049 ft 510 kts 37°
2026-04-28 23:22 22.91841 40.26927 33035 ft 511 kts 37°
2026-04-28 23:22 22.97200 40.32093 33029 ft 512 kts 37°
2026-04-28 23:23 23.02500 40.37190 33026 ft 512 kts 37°
2026-04-28 23:23 23.07839 40.42333 33018 ft 513 kts 37°
2026-04-28 23:24 23.13191 40.47500 33018 ft 514 kts 37°
2026-04-28 23:24 23.15862 40.50085 33008 ft 514 kts 37°
2026-04-28 23:25 23.28397 40.63737 32993 ft 526 kts 60°
2026-04-28 23:26 23.31119 40.71088 33001 ft 528 kts 69°
2026-04-28 23:26 23.33655 40.78596 33010 ft 529 kts 69°
2026-04-28 23:27 23.36237 40.86102 33007 ft 529 kts 68°
2026-04-28 23:27 23.38834 40.93552 33009 ft 529 kts 68°
2026-04-28 23:28 23.41430 41.01051 33006 ft 529 kts 68°
2026-04-28 23:28 23.44012 41.08555 33003 ft 529 kts 68°
2026-04-28 23:29 23.46588 41.16014 33005 ft 529 kts 68°
2026-04-28 23:29 23.49175 41.23527 33003 ft 529 kts 68°
2026-04-28 23:30 23.51756 41.31048 32999 ft 530 kts 68°
2026-04-28 23:30 23.54343 41.38577 33000 ft 530 kts 68°
2026-04-28 23:31 23.56920 41.46098 32997 ft 530 kts 68°
2026-04-28 23:31 23.59491 41.53625 32997 ft 530 kts 68°
2026-04-28 23:32 23.62064 41.61147 32988 ft 529 kts 68°
2026-04-28 23:32 23.64621 41.68668 32991 ft 529 kts 68°
2026-04-28 23:33 23.67154 41.76165 33001 ft 529 kts 69°
2026-04-28 23:33 23.69579 41.83741 32993 ft 529 kts 70°
2026-04-28 23:34 23.72000 41.91335 32996 ft 529 kts 70°
2026-04-28 23:34 23.74423 41.98934 32993 ft 529 kts 69°
2026-04-28 23:35 23.76976 42.06469 32996 ft 529 kts 68°
2026-04-28 23:35 23.79531 42.13970 32987 ft 529 kts 68°
2026-04-28 23:36 23.82097 42.21520 32993 ft 529 kts 68°
2026-04-28 23:36 23.84669 42.29053 32993 ft 529 kts 68°
2026-04-28 23:37 23.87240 42.36601 32996 ft 530 kts 68°
2026-04-28 23:37 23.89815 42.44154 32990 ft 531 kts 68°
2026-04-28 23:38 23.92379 42.51751 32988 ft 532 kts 69°
2026-04-28 23:38 23.94928 42.59298 32989 ft 532 kts 68°
2026-04-28 23:39 23.97492 42.66905 32990 ft 532 kts 69°
2026-04-28 23:39 24.00056 42.74499 32982 ft 532 kts 69°
2026-04-28 23:40 24.02622 42.82105 32985 ft 532 kts 69°
2026-04-28 23:40 24.05160 42.89667 32987 ft 532 kts 69°
2026-04-28 23:41 24.07672 42.97278 32985 ft 532 kts 69°
2026-04-28 23:41 24.10177 43.04915 32983 ft 532 kts 69°
2026-04-28 23:42 24.12684 43.12548 32980 ft 533 kts 69°
2026-04-28 23:42 24.15187 43.20175 32979 ft 533 kts 69°
2026-04-28 23:43 24.17684 43.27826 32978 ft 533 kts 69°
2026-04-28 23:43 24.20186 43.35479 32976 ft 532 kts 69°
2026-04-28 23:44 24.22672 43.43114 32971 ft 532 kts 69°
2026-04-28 23:44 24.25158 43.50748 32975 ft 532 kts 69°
2026-04-28 23:45 24.27626 43.58341 32973 ft 532 kts 69°
2026-04-28 23:45 24.30093 43.65989 32968 ft 532 kts 69°
2026-04-28 23:46 24.32563 43.73637 32968 ft 531 kts 69°
2026-04-28 23:46 24.35026 43.81281 32965 ft 531 kts 69°
2026-04-28 23:47 24.37485 43.88914 32956 ft 531 kts 69°
2026-04-28 23:47 24.39946 43.96563 32951 ft 531 kts 69°
2026-04-28 23:48 24.42399 44.04208 32932 ft 531 kts 69°
2026-04-28 23:48 24.44778 44.11831 32929 ft 532 kts 73°
2026-04-28 23:49 24.46272 44.19792 32934 ft 532 kts 79°
2026-04-28 23:49 24.47652 44.27782 32939 ft 532 kts 79°
2026-04-28 23:50 24.49036 44.35767 32947 ft 532 kts 79°
2026-04-28 23:50 24.50410 44.43703 32953 ft 532 kts 79°
2026-04-28 23:51 24.51785 44.51677 32955 ft 532 kts 79°
2026-04-28 23:51 24.53156 44.59675 32951 ft 532 kts 79°
2026-04-28 23:52 24.54525 44.67659 32955 ft 532 kts 79°
2026-04-28 23:52 24.55882 44.75599 32955 ft 531 kts 79°
2026-04-28 23:53 24.57240 44.83580 32943 ft 531 kts 79°
2026-04-28 23:53 24.58590 44.91553 32944 ft 531 kts 79°
2026-04-28 23:54 24.59947 44.99564 32943 ft 531 kts 79°
2026-04-28 23:54 24.61067 45.06200 32942 ft 531 kts 79°
2026-04-28 23:55 24.62636 45.15555 32937 ft 532 kts 79°
2026-04-28 23:55 24.63957 45.23490 32933 ft 532 kts 79°
2026-04-28 23:56 24.65297 45.31495 32932 ft 532 kts 79°
2026-04-28 23:56 24.66618 45.39508 32934 ft 533 kts 80°
2026-04-28 23:57 24.67946 45.47530 32931 ft 533 kts 79°
2026-04-28 23:57 24.69267 45.55560 32928 ft 533 kts 79°
2026-04-28 23:58 24.70571 45.63592 32928 ft 533 kts 79°
2026-04-28 23:58 24.72270 45.71472 32930 ft 533 kts 72°
2026-04-28 23:59 24.74415 45.79273 32933 ft 533 kts 72°
2026-04-28 23:59 24.76552 45.87083 32926 ft 533 kts 72°
2026-04-29 00:00 24.78678 45.94891 32933 ft 533 kts 72°
2026-04-29 00:00 24.80795 46.02714 32933 ft 533 kts 72°
2026-04-29 00:01 24.82912 46.10535 32938 ft 533 kts 72°
2026-04-29 00:01 24.85019 46.18365 32943 ft 532 kts 72°
2026-04-29 00:02 24.87127 46.26175 32940 ft 532 kts 72°
2026-04-29 00:02 24.89222 46.33996 32931 ft 532 kts 72°
2026-04-29 00:03 24.90962 46.40516 32922 ft 532 kts 72°
2026-04-29 00:03 24.93076 46.48337 32917 ft 532 kts 72°
2026-04-29 00:04 24.95154 46.56116 32905 ft 532 kts 72°
2026-04-29 00:04 24.97238 46.63948 32905 ft 532 kts 73°
2026-04-29 00:05 24.99874 46.71571 32910 ft 530 kts 63°
2026-04-29 00:05 25.03020 46.78932 32906 ft 530 kts 62°
2026-04-29 00:06 25.06112 46.86268 32910 ft 531 kts 63°
2026-04-29 00:06 25.09196 46.93695 32916 ft 531 kts 63°
2026-04-29 00:07 25.11758 46.99867 32915 ft 531 kts 63°
2026-04-29 00:07 25.15342 47.08488 32916 ft 532 kts 63°
2026-04-29 00:08 25.17927 47.14721 32910 ft 532 kts 63°
2026-04-29 00:08 25.20977 47.22099 32911 ft 532 kts 63°
2026-04-29 00:09 25.24036 47.29547 32905 ft 532 kts 63°
2026-04-29 00:09 25.27107 47.36995 32902 ft 532 kts 63°
2026-04-29 00:10 25.30188 47.44435 32899 ft 532 kts 63°
2026-04-29 00:10 25.33243 47.51885 32894 ft 532 kts 63°
2026-04-29 00:11 25.36308 47.59342 32893 ft 532 kts 63°
2026-04-29 00:12 25.40869 47.70477 32886 ft 532 kts 63°
2026-04-29 00:12 25.43917 47.77954 32883 ft 533 kts 63°
2026-04-29 00:13 25.46959 47.85440 32881 ft 533 kts 63°
2026-04-29 00:13 25.50000 47.92928 32876 ft 533 kts 63°
2026-04-29 00:14 25.53048 48.00423 32876 ft 533 kts 63°
2026-04-29 00:14 25.56065 48.07876 32868 ft 533 kts 63°
2026-04-29 00:15 25.59104 48.15389 32873 ft 533 kts 63°
2026-04-29 00:15 25.62144 48.22906 32867 ft 534 kts 63°
2026-04-29 00:16 25.64171 48.27926 32866 ft 534 kts 63°